Temp
75 84 83 76 62 60 57 66 79 79 76 80 85 83 79 82 77 65 85 88 84 79 77 79 79 80 80 80 79 79 79 79 79 79 78 78 79 79 79 79 79 80 80 80 80 80 80 80 80
75 83 80 71 56 50 56 73 70 77 82 85 86 86 81 78 88 86 87 88 86 80 77 77 79 80 80 80 79 79 79 79 79 79 78 78 78 79 79 79 79 80 80 80 80 80 80 80 80
80 83 68 60 55 52 58 73 74 81 84 84 83 89 85 80 88 88 90 88 85 80 80 78 79 79 80 80 79 79 79 79 79 79 79 78 78 78 78 78 79 80 80 80 80 80 79 79 79
79 75 72 58 56 65 69 77 79 80 83 85 86 82 87 91 89 90 94 90 85 82 82 79 78 79 79 79 79 79 79 79 79 79 78 78 78 78 78 78 79 79 80 80 80 79 79 79 78
76 68 56 54 59 69 75 79 81 78 81 81 83 80 80 88 92 92 91 95 84 83 81 78 78 78 79 79 79 79 78 78 78 79 79 78 78 78 78 78 78 79 80 80 79 79 78 78 78
65 66 50 49 59 71 75 79 82 80 83 82 81 82 79 87 89 89 91 89 92 86 80 78 78 78 78 79 79 78 78 78 78 78 78 78 78 77 77 78 78 79 79 79 79 78 77 77 77
61 57 54 57 61 66 74 78 76 80 81 81 85 79 82 86 88 89 89 89 89 88 81 78 77 78 78 78 78 78 77 78 78 77 77 77 77 77 77 77 78 78 78 78 78 77 77 77 76
67 60 56 62 62 64 77 77 76 78 79 89 87 75 72 81 89 89 90 88 85 83 80 77 76 75 75 76 78 77 77 77 77 77 77 77 77 77 77 77 77 77 77 77 77 77 77 76 76
73 56 55 59 64 68 77 74 78 84 81 83 86 83 87 90 88 87 86 86 84 83 79 78 77 75 75 75 77 77 78 77 77 77 77 76 73 74 75 76 77 77 77 77 77 77 76 76 75
63 55 58 68 72 70 74 75 78 77 77 76 81 86 89 90 84 84 83 81 82 80 80 79 79 77 77 82 75 73 76 75 74 74 75 73 72 72 77 76 78 78 77 77 77 76 76 76 71
65 60 67 71 75 76 74 76 79 76 72 76 77 81 82 83 80 82 84 82 80 80 84 83 80 80 80 82 74 74 73 72 72 73 73 71 74 72 75 73 75 72 76 73 75 74 73 72 71
60 70 72 74 78 76 73 76 75 75 74 82 81 82 82 79 77 77 82 82 80 82 82 81 81 81 81 78 77 77 76 74 73 72 72 71 71 71 72 73 73 73 73 71 72 72 72 71 73
65 68 74 76 74 73 76 73 73 75 79 83 83 83 79 77 77 79 81 81 81 80 78 80 80 79 77 77 79 77 75 77 76 75 74 73 72 71 73 74 74 73 73 73 72 73 73 72 74
67 68 69 70 68 69 68 71 72 77 79 80 80 77 78 77 77 76 78 78 79 80 80 80 79 80 81 77 78 77 77 76 77 78 77 76 74 75 74 74 74 74 75 76 75 75 73 73 74
68 60 65 67 68 66 71 66 68 75 78 76 76 77 77 77 78 76 77 77 77 79 80 78 77 77 78 78 76 76 78 78 77 76 78 78 77 75 75 74 74 75 75 75 73 73 73 72 74
59 57 48 62 69 72 66 58 71 75 74 73 76 78 78 74 75 74 77 75 71 73 78 78 81 77 76 77 74 76 77 76 76 77 76 79 78 78 76 74 73 74 74 74 73 73 71 71 70
53 47 51 59 70 69 66 61 71 75 73 70 71 74 76 73 72 74 76 75 73 71 72 74 75 75 74 75 76 73 76 76 74 75 76 77 78 78 75 74 73 74 73 72 71 71 69 69 70
48 50 56 55 63 65 61 62 67 72 71 69 69 70 71 72 71 74 74 71 70 69 70 70 71 72 73 74 75 74 74 74 74 74 73 77 76 77 75 73 73 74 72 71 70 69 70 70 70
60 57 54 60 66 61 59 59 63 67 65 65 66 66 68 70 73 72 71 70 68 67 67 68 69 69 68 70 70 77 71 71 74 74 77 77 76 77 74 73 73 73 72 71 70 70 70 68 70
59 55 52 59 65 62 58 57 62 65 64 64 66 67 66 67 69 70 68 68 67 66 66 66 66 67 66 67 67 71 75 68 71 76 76 77 77 76 75 74 72 73 72 71 71 70 69 68 72
56 54 53 53 61 62 57 54 58 64 66 69 71 71 72 67 67 68 69 67 64 63 63 65 65 65 65 66 66 67 69 70 71 68 72 75 77 76 75 74 74 73 73 74 71 70 68 68 69
50 61 62 59 51 40 55 40 53 58 62 67 70 71 72 73 69 67 68 62 63 64 65 65 64 64 65 64 63 64 63 64 70 73 72 73 74 76 76 74 74 73 73 73 71 73 70 69 66
56 63 59 57 49 45 48 42 51 56 56 62 67 70 67 71 67 65 65 66 66 65 64 64 64 63 64 63 63 62 63 64 66 68 69 69 71 73 75 74 71 73 74 75 72 74 70 72 70
67 58 55 51 44 37 47 45 47 53 56 61 65 70 69 66 66 68 69 67 65 66 65 63 63 63 63 63 62 62 61 63 64 65 66 66 69 71 71 74 72 73 75 74 74 74 71 70 71
60 49 37 33 32 35 50 47 49 54 60 60 62 65 65 66 64 65 64 65 64 64 64 63 63 62 63 64 64 62 62 62 63 63 65 66 67 70 72 71 69 73 75 74 75 73 71 72 73
56 53 42 30 27 36 50 39 46 60 61 65 68 70 68 65 63 63 66 67 65 66 64 65 63 62 63 64 64 64 63 62 61 62 63 65 68 70 71 71 72 71 74 73 75 76 73 73 72
55 47 54 43 44 34 37 46 55 61 60 65 65 67 62 65 63 63 64 62 64 64 65 65 63 64 64 64 63 64 63 62 62 62 62 64 65 69 68 70 70 70 71 73 74 75 74 71 71
56 60 41 41 29 25 35 39 41 50 53 59 59 62 66 64 63 64 64 65 65 65 65 64 65 66 65 64 64 64 63 64 63 62 62 62 63 66 68 69 69 68 69 71 72 75 70 70 70
48 45 43 40 34 29 28 35 49 48 49 51 54 57 57 61 62 64 65 65 66 66 64 63 65 66 64 65 63 64 64 64 64 62 62 63 64 66 68 68 69 69 69 68 70 70 70 69 71
53 43 40 33 31 34 33 33 56 53 51 52 56 59 59 62 60 59 64 65 64 64 66 65 63 65 66 66 64 64 63 63 62 63 63 62 63 66 67 69 70 70 71 68 68 72 75 73 71
MSLP
1009.68 1009.23 1009.01 1009.16 1009.66 1008.99 1008.19 1006.28 1004.78 1004.07 1002.62 1001.86 1001.09 1001.46 1002.74 1003.33 1003.92 1005.95 1005.82 1005.83 1005.88 1007.26 1007.81 1008.39 1008.70 1008.80 1008.97 1009.40 1010.25 1010.71 1011.09 1011.43 1011.97 1012.24 1012.48 1012.84 1013.09 1013.27 1013.62 1013.92 1014.19 1014.41 1014.62 1014.87 1015.12 1015.28 1015.43 1015.47 1015.62
1010.01 1009.55 1008.76 1008.92 1009.57 1009.14 1007.67 1005.51 1005.33 1004.40 1003.46 1001.85 1001.22 1001.39 1002.44 1003.87 1003.92 1004.84 1004.93 1005.52 1005.89 1006.76 1007.62 1008.24 1008.58 1008.69 1008.81 1009.14 1010.13 1010.85 1011.18 1011.52 1012.04 1012.41 1012.69 1012.96 1013.20 1013.44 1013.69 1014.04 1014.37 1014.65 1014.85 1014.99 1015.19 1015.55 1015.65 1015.59 1015.70
1010.01 1009.84 1010.05 1009.42 1009.22 1008.81 1007.15 1005.44 1004.98 1004.48 1003.40 1002.78 1001.96 1001.44 1002.37 1003.90 1004.02 1004.44 1004.47 1005.48 1006.22 1006.94 1007.13 1007.86 1008.65 1008.79 1009.05 1009.28 1009.95 1010.86 1011.50 1011.79 1012.19 1012.55 1012.94 1013.27 1013.42 1013.60 1013.83 1014.24 1014.44 1014.67 1014.83 1014.99 1015.20 1015.61 1015.77 1015.78 1015.84
1009.93 1009.66 1009.83 1009.45 1009.02 1007.86 1006.91 1005.21 1004.32 1004.60 1003.78 1003.24 1002.56 1002.50 1003.32 1003.40 1003.78 1004.03 1004.08 1005.06 1006.07 1006.76 1007.06 1007.73 1008.47 1009.13 1009.34 1009.66 1010.24 1010.93 1011.73 1012.15 1012.37 1012.70 1013.10 1013.42 1013.76 1013.87 1014.11 1014.42 1014.57 1014.73 1014.82 1014.86 1015.10 1015.34 1015.71 1015.83 1015.89
1010.03 1010.39 1010.52 1009.76 1008.82 1007.52 1006.18 1005.20 1004.50 1004.55 1004.03 1004.07 1003.90 1003.47 1004.05 1004.11 1003.76 1003.78 1004.14 1004.04 1005.69 1006.51 1006.83 1007.35 1008.27 1009.13 1009.77 1009.64 1010.12 1010.78 1011.40 1012.26 1012.60 1012.89 1013.30 1013.50 1013.69 1013.93 1014.20 1014.52 1014.71 1014.82 1014.91 1014.92 1015.07 1015.35 1015.58 1015.81 1015.92
1010.94 1010.49 1010.92 1010.28 1008.87 1007.28 1005.90 1004.91 1004.08 1004.81 1003.90 1004.08 1004.17 1004.18 1004.80 1004.34 1004.13 1003.94 1003.90 1003.92 1004.37 1005.98 1006.68 1007.22 1007.80 1008.92 1009.72 1010.21 1010.31 1010.81 1011.30 1011.88 1012.46 1012.96 1013.34 1013.62 1013.81 1014.10 1014.35 1014.62 1014.83 1014.91 1014.94 1015.11 1015.26 1015.39 1015.66 1015.75 1015.86
1011.04 1010.84 1010.74 1010.05 1008.78 1007.29 1005.68 1004.57 1004.33 1004.16 1003.64 1003.91 1003.88 1004.11 1004.70 1004.71 1004.38 1004.22 1004.07 1003.90 1004.40 1005.61 1006.88 1007.24 1007.59 1008.53 1009.41 1010.27 1010.47 1010.64 1011.23 1011.61 1012.31 1012.77 1013.21 1013.62 1013.99 1014.18 1014.37 1014.58 1014.76 1014.94 1015.00 1015.09 1015.36 1015.48 1015.70 1015.78 1015.88
1010.17 1010.61 1010.36 1009.64 1008.53 1006.98 1005.16 1004.44 1003.81 1003.70 1003.86 1003.86 1003.74 1004.24 1004.68 1004.88 1004.34 1004.46 1004.37 1004.36 1005.01 1005.96 1007.05 1007.21 1007.77 1008.33 1009.43 1010.06 1010.62 1010.80 1011.09 1011.50 1011.87 1012.44 1012.98 1013.44 1013.84 1014.14 1014.39 1014.51 1014.66 1014.86 1015.04 1015.08 1015.23 1015.41 1015.47 1015.71 1015.78
1009.51 1010.07 1009.73 1008.79 1007.86 1006.61 1005.02 1004.50 1003.76 1003.20 1003.48 1003.34 1003.35 1004.05 1003.85 1004.49 1004.61 1004.61 1005.24 1005.22 1005.76 1006.59 1007.16 1007.37 1007.74 1008.33 1009.35 1010.18 1010.78 1010.90 1011.19 1011.58 1012.02 1012.34 1012.67 1013.12 1013.62 1013.90 1014.19 1014.40 1014.55 1014.68 1014.72 1014.86 1015.02 1015.11 1015.35 1015.44 1015.34
1009.41 1009.19 1008.67 1008.12 1007.18 1006.28 1005.18 1004.60 1004.00 1003.78 1003.56 1003.56 1003.57 1003.63 1003.95 1003.84 1004.67 1004.74 1005.72 1006.23 1006.00 1006.49 1007.78 1007.90 1007.43 1008.11 1008.69 1009.57 1010.54 1011.21 1011.12 1011.67 1011.94 1012.28 1012.52 1012.85 1013.21 1013.59 1013.68 1013.91 1014.06 1014.18 1014.38 1014.42 1014.59 1014.54 1014.72 1014.88 1015.07
1008.67 1008.46 1008.21 1007.31 1006.36 1005.67 1004.98 1004.35 1003.92 1003.71 1003.70 1003.32 1003.48 1003.76 1004.10 1004.39 1005.37 1005.35 1005.23 1006.30 1006.48 1006.68 1006.47 1007.51 1007.66 1007.44 1008.28 1008.88 1010.02 1010.88 1011.34 1011.60 1011.86 1012.03 1012.32 1012.63 1012.81 1013.03 1013.30 1013.63 1013.74 1013.99 1014.03 1014.22 1014.34 1014.15 1014.15 1014.27 1014.65
1008.16 1007.68 1007.24 1006.50 1005.65 1005.12 1004.70 1004.22 1003.80 1003.74 1003.91 1003.15 1003.22 1003.66 1004.26 1004.95 1005.80 1005.66 1005.32 1005.90 1006.15 1006.57 1006.36 1007.00 1007.91 1007.82 1007.97 1008.48 1009.45 1009.91 1010.77 1011.14 1011.63 1011.82 1012.03 1012.39 1012.66 1012.77 1012.89 1013.02 1013.19 1013.58 1013.65 1013.90 1014.00 1013.81 1013.70 1013.82 1013.93
1007.45 1007.13 1006.34 1005.67 1005.21 1004.82 1004.48 1004.22 1004.08 1003.49 1003.59 1003.50 1003.15 1003.92 1004.40 1005.06 1005.40 1005.84 1005.74 1005.69 1005.97 1006.35 1007.03 1007.35 1007.72 1007.84 1008.00 1008.56 1009.48 1009.62 1010.24 1010.69 1010.61 1011.33 1011.62 1012.00 1012.37 1012.60 1012.40 1012.48 1012.62 1012.93 1013.17 1013.35 1013.37 1013.32 1013.30 1013.46 1013.61
1007.20 1006.73 1006.14 1005.54 1005.14 1004.75 1004.66 1004.65 1004.25 1003.54 1003.34 1003.97 1004.08 1004.11 1004.16 1004.65 1005.08 1005.53 1005.98 1006.02 1006.00 1006.20 1007.10 1007.42 1007.89 1007.70 1007.89 1008.30 1008.90 1009.08 1009.27 1010.32 1010.38 1010.65 1010.88 1011.35 1011.78 1012.02 1012.26 1012.25 1012.32 1012.37 1012.41 1012.61 1012.65 1012.76 1012.90 1013.04 1013.03
1007.44 1007.14 1006.29 1005.62 1005.07 1004.84 1004.84 1004.77 1004.37 1004.01 1003.65 1003.60 1003.83 1004.34 1004.38 1004.35 1004.54 1005.13 1005.46 1005.84 1006.08 1005.64 1006.60 1007.48 1007.57 1007.60 1007.84 1008.01 1008.63 1008.92 1009.06 1009.24 1010.12 1010.44 1010.26 1010.61 1011.06 1011.42 1011.70 1011.87 1011.90 1011.66 1011.66 1011.93 1012.28 1012.34 1012.26 1012.76 1012.81
1008.21 1007.70 1007.18 1006.02 1005.51 1004.84 1005.28 1004.48 1004.20 1004.00 1004.07 1004.02 1003.72 1003.71 1003.80 1004.27 1004.36 1004.69 1005.22 1005.54 1006.00 1005.95 1006.13 1006.47 1007.00 1007.01 1007.57 1008.13 1008.71 1008.37 1008.84 1008.92 1009.81 1010.09 1009.90 1010.18 1010.23 1010.73 1011.11 1011.44 1011.60 1011.53 1011.63 1011.63 1011.81 1011.98 1012.11 1012.58 1012.76
1008.42 1008.11 1007.41 1006.08 1005.25 1004.75 1004.58 1004.04 1003.45 1003.40 1003.82 1003.86 1003.91 1003.79 1003.78 1003.76 1004.08 1004.47 1004.93 1005.11 1005.67 1006.30 1006.28 1006.66 1006.74 1006.98 1007.37 1007.43 1008.12 1008.58 1009.00 1008.94 1009.57 1009.67 1009.58 1009.82 1010.04 1010.15 1010.60 1011.03 1011.26 1011.34 1011.72 1011.69 1011.76 1012.11 1012.44 1012.68 1012.63
1008.23 1007.63 1006.75 1005.96 1005.20 1004.72 1004.73 1004.00 1003.00 1002.95 1003.16 1003.48 1003.80 1003.56 1003.64 1003.81 1004.09 1004.32 1004.78 1004.98 1005.74 1006.40 1006.68 1006.83 1007.02 1007.31 1007.15 1007.52 1007.70 1008.08 1008.90 1008.84 1009.02 1009.52 1010.00 1009.32 1009.84 1010.06 1010.32 1010.69 1011.04 1011.04 1011.32 1011.56 1011.54 1011.92 1012.24 1012.17 1012.15
1007.35 1007.02 1006.46 1005.52 1005.21 1005.25 1004.98 1004.61 1003.98 1003.37 1003.16 1003.51 1003.46 1003.66 1003.79 1003.58 1003.59 1004.02 1004.60 1005.10 1005.78 1006.54 1007.06 1007.30 1007.21 1007.49 1007.60 1007.65 1007.92 1007.83 1007.68 1009.92 1009.16 1009.78 1009.27 1009.12 1009.36 1009.61 1010.19 1010.43 1010.92 1011.01 1011.08 1011.24 1011.32 1011.40 1011.88 1012.04 1012.08
1006.56 1006.49 1006.21 1005.76 1005.62 1005.64 1005.10 1004.73 1004.10 1003.57 1003.38 1003.29 1003.28 1003.38 1003.48 1003.75 1003.47 1003.96 1004.43 1005.05 1005.48 1006.18 1006.98 1007.56 1007.79 1007.85 1008.12 1008.31 1008.42 1008.41 1008.01 1008.25 1009.86 1008.90 1009.64 1008.90 1009.27 1009.21 1009.44 1009.62 1010.26 1010.61 1010.60 1010.93 1011.06 1011.27 1011.42 1011.52 1011.76
1006.06 1006.43 1006.32 1006.22 1005.81 1005.52 1005.50 1004.95 1004.25 1003.50 1003.10 1002.80 1002.56 1002.64 1002.71 1002.96 1003.38 1003.71 1004.20 1004.65 1005.45 1006.32 1006.65 1007.17 1007.80 1008.34 1008.64 1008.74 1008.75 1008.82 1009.07 1009.31 1009.09 1010.03 1009.04 1008.98 1008.72 1008.64 1009.56 1008.99 1009.52 1010.02 1009.93 1010.40 1010.54 1010.89 1011.08 1011.39 1011.44
1005.60 1006.06 1006.09 1006.23 1006.33 1006.56 1006.66 1006.01 1005.12 1004.09 1003.42 1002.93 1002.40 1002.24 1001.59 1001.87 1002.18 1002.87 1003.81 1004.91 1005.57 1006.42 1006.85 1007.41 1007.87 1008.12 1008.74 1009.24 1009.40 1009.25 1009.49 1009.63 1008.96 1007.40 1008.51 1008.63 1007.83 1008.97 1008.96 1008.81 1008.62 1009.53 1009.44 1009.88 1009.98 1010.35 1010.60 1010.69 1011.00
1004.96 1005.35 1006.08 1006.49 1006.71 1006.78 1007.17 1007.32 1004.23 1004.30 1003.33 1002.63 1001.88 1001.16 1000.74 1000.68 1001.28 1002.09 1003.44 1004.52 1005.40 1006.07 1006.64 1007.06 1007.68 1008.16 1008.46 1008.89 1009.12 1009.28 1009.24 1009.26 1009.33 1008.65 1007.99 1008.32 1009.12 1009.52 1008.69 1008.58 1008.44 1008.79 1009.01 1009.21 1009.58 1009.97 1010.34 1010.62 1009.58
1004.66 1005.16 1005.80 1006.53 1007.19 1007.28 1007.04 1007.10 1004.70 1004.02 1003.54 1002.51 1001.70 1000.50 1000.15 1000.40 1001.12 1002.14 1003.10 1004.10 1004.94 1005.46 1006.05 1006.68 1007.29 1007.66 1007.86 1008.31 1008.72 1009.08 1008.86 1008.96 1008.90 1008.52 1008.46 1008.47 1008.97 1008.00 1007.99 1008.97 1007.96 1007.35 1008.60 1008.86 1008.90 1009.26 1009.50 1009.49 1008.84
1004.46 1005.42 1006.36 1007.29 1007.85 1006.89 1006.91 1005.96 1004.26 1003.46 1002.89 1002.30 1001.67 1000.44 999.34 1000.00 1000.97 1001.94 1002.96 1004.10 1004.60 1005.12 1005.58 1006.13 1006.71 1007.08 1007.26 1007.68 1007.96 1008.14 1008.46 1008.68 1008.73 1008.60 1008.22 1007.98 1008.30 1007.64 1007.36 1007.76 1007.38 1007.58 1007.83 1008.32 1008.01 1008.57 1008.76 1007.91 1008.26
1003.84 1005.06 1006.13 1006.94 1007.70 1007.07 1006.76 1005.21 1003.62 1002.81 1002.29 1001.48 1001.53 1001.56 1001.17 1000.84 1001.20 1001.76 1002.58 1003.11 1003.70 1004.18 1004.73 1005.34 1006.12 1006.44 1006.73 1006.98 1007.26 1007.45 1007.74 1008.21 1008.33 1008.32 1008.27 1007.87 1007.56 1006.72 1006.76 1007.11 1007.94 1007.60 1006.35 1006.72 1007.44 1007.76 1007.92 1007.14 1007.16
1003.94 1004.62 1005.27 1006.52 1008.16 1008.09 1007.27 1005.22 1003.70 1002.22 1001.89 1001.44 1001.13 1002.38 1001.85 1001.33 1001.48 1001.78 1002.59 1002.92 1003.41 1003.95 1004.36 1004.72 1005.27 1005.59 1005.84 1006.20 1006.56 1006.77 1006.96 1007.34 1007.66 1007.56 1007.57 1007.51 1007.30 1007.57 1007.25 1006.99 1007.00 1006.74 1006.74 1006.58 1006.56 1006.32 1006.76 1006.81 1006.64
1004.28 1004.80 1005.88 1006.94 1008.75 1008.83 1007.54 1005.35 1003.92 1002.90 1002.21 1001.49 1001.67 1002.25 1002.18 1001.95 1001.81 1002.00 1002.67 1002.71 1002.88 1003.16 1003.33 1003.80 1004.20 1004.58 1004.81 1005.20 1005.54 1005.88 1006.31 1006.35 1006.47 1006.63 1006.83 1006.70 1006.60 1006.66 1006.51 1006.34 1006.10 1005.78 1005.83 1005.31 1005.75 1006.10 1006.07 1006.33 1006.45
1005.07 1005.87 1007.06 1008.66 1009.90 1009.05 1008.05 1005.47 1003.77 1003.59 1003.13 1002.85 1002.57 1002.85 1003.76 1003.42 1002.36 1001.90 1002.10 1002.16 1002.15 1002.39 1002.57 1003.00 1003.41 1003.68 1004.11 1004.38 1004.68 1005.11 1005.44 1005.37 1005.57 1005.82 1006.02 1006.13 1006.06 1005.99 1005.68 1005.55 1005.29 1005.28 1005.44 1005.20 1005.58 1005.54 1005.44 1006.00 1005.42
1005.85 1007.38 1008.73 1010.38 1010.57 1010.18 1008.95 1006.51 1004.59 1003.73 1003.46 1003.14 1002.94 1002.70 1002.80 1003.04 1003.24 1003.34 1003.24 1001.68 1001.69 1001.89 1002.10 1002.27 1002.44 1002.85 1003.06 1003.42 1003.84 1004.28 1004.56 1004.83 1005.25 1005.34 1005.08 1005.27 1005.50 1005.55 1005.51 1005.34 1005.06 1004.91 1004.85 1004.82 1004.84 1004.45 1003.83 1003.91 1004.07
Wind_Speed
9 12 5 1 4 2 5 10 5 15 0 4 4 7 14 15 9 7 5 12 21 14 12 12 14 17 19 19 15 14 14 15 14 14 14 13 13 14 13 12 11 10 11 10 9 8 6 6 5
5 8 3 1 3 1 7 16 3 10 10 6 6 6 15 10 7 8 7 14 17 16 13 11 14 16 19 21 17 13 14 15 14 14 14 13 13 13 13 11 10 10 9 10 9 7 6 5 5
6 6 2 2 4 5 5 10 8 13 13 10 6 5 7 8 7 4 6 19 17 13 14 14 13 14 17 19 19 15 12 14 14 14 13 12 12 12 12 10 10 9 9 9 8 6 5 4 4
4 5 4 1 8 11 9 10 6 7 12 12 6 4 8 6 4 6 8 19 16 15 14 17 15 12 15 17 17 16 13 12 13 13 12 11 10 10 10 9 9 8 8 8 8 7 4 3 3
2 2 2 3 8 11 8 7 9 5 13 7 15 7 7 5 8 7 6 6 17 15 13 17 18 14 12 18 19 18 17 12 12 12 11 11 11 10 10 9 8 8 7 7 8 6 5 2 1
3 3 1 4 8 12 10 8 11 8 22 9 8 13 5 5 8 6 6 4 11 17 15 16 22 15 12 13 18 18 17 16 13 12 11 10 10 10 9 8 8 7 7 6 6 5 4 3 3
5 1 6 8 12 16 16 6 6 21 16 9 3 5 6 8 7 9 10 4 10 17 14 13 16 16 15 12 16 19 18 17 14 12 11 10 9 9 9 8 8 7 7 6 5 5 5 5 5
5 3 8 11 12 16 17 8 5 8 12 6 4 2 1 3 7 10 10 9 15 16 11 13 13 14 10 9 13 17 18 17 18 15 12 11 10 9 8 8 7 7 6 7 7 6 7 7 6
6 5 11 11 15 17 15 9 5 8 7 4 4 3 7 7 6 11 8 8 13 11 9 12 14 13 11 9 8 12 16 16 15 14 14 11 5 6 7 7 9 9 9 9 8 8 8 9 9
7 6 10 10 15 14 11 9 7 4 10 7 4 5 8 6 7 9 7 8 5 11 7 7 14 14 14 10 9 5 8 6 6 7 9 6 6 6 8 10 14 13 12 11 10 10 11 10 4
9 13 11 13 15 14 11 15 9 7 8 9 13 8 3 8 5 5 7 6 6 4 11 12 11 16 13 10 8 5 4 4 4 7 7 6 6 5 5 4 4 4 10 4 7 7 6 7 5
10 15 17 17 20 17 13 9 11 7 5 7 9 6 5 3 6 2 6 7 5 8 7 9 10 11 12 7 9 10 7 7 5 5 8 6 4 5 5 4 6 6 4 6 6 5 7 7 8
13 12 15 15 12 12 10 9 9 15 6 1 11 9 7 5 3 4 5 7 7 10 8 6 8 7 7 9 4 6 5 6 8 8 7 6 5 5 5 5 5 6 5 6 6 7 6 7 7
7 9 9 8 7 5 5 9 8 17 8 6 6 7 9 9 9 5 5 5 7 9 8 3 7 7 6 6 7 5 6 6 7 8 9 10 6 6 5 5 5 5 5 7 7 7 6 6 7
10 9 10 9 7 7 6 13 18 9 10 11 8 9 9 11 10 9 9 9 8 8 8 8 7 5 4 6 4 3 5 5 4 5 10 12 10 8 7 5 5 5 4 7 5 4 5 4 4
8 7 6 7 9 14 8 20 19 11 9 12 11 12 9 11 10 8 8 5 2 5 11 8 6 9 9 5 3 3 1 3 2 3 5 11 11 10 7 5 5 5 4 4 3 4 2 2 2
6 8 11 16 15 16 12 22 21 14 8 9 9 13 11 9 8 8 8 7 7 6 8 8 4 8 7 8 6 3 2 1 2 4 1 7 9 9 6 5 4 5 4 4 3 3 1 2 3
9 8 10 9 6 9 10 13 10 8 6 8 8 6 4 6 8 9 8 8 8 6 5 3 2 2 7 4 5 4 3 3 2 3 5 4 5 7 7 4 4 5 4 4 2 3 3 4 5
11 12 8 9 10 10 13 11 8 7 4 7 8 5 9 9 9 10 11 10 10 8 5 3 3 1 3 2 2 8 8 5 3 4 7 5 5 7 7 5 5 5 4 4 5 3 5 3 2
9 12 8 9 11 12 12 12 9 8 5 5 7 10 9 9 8 10 13 11 9 10 9 6 4 2 1 1 2 4 3 6 6 3 6 4 6 6 7 9 7 7 4 6 5 4 3 3 4
7 11 7 9 15 12 8 13 13 8 8 9 14 13 14 11 11 12 14 14 11 9 8 8 7 5 3 2 2 2 4 3 6 4 2 4 6 6 8 9 8 8 6 6 6 5 7 4 2
6 9 13 12 7 4 5 13 15 9 15 18 19 17 20 21 10 11 13 8 10 8 8 8 7 6 3 1 2 4 2 3 5 6 3 5 4 7 9 8 8 7 5 5 5 6 5 5 5
10 8 10 10 7 7 7 9 17 8 11 16 18 19 13 15 8 11 15 15 11 10 8 8 8 7 5 5 4 3 4 3 3 3 3 5 6 8 6 8 8 7 6 8 6 9 6 7 5
16 7 8 5 3 10 13 10 17 14 6 9 15 20 9 11 14 16 13 12 9 9 9 8 9 8 7 6 6 6 4 4 4 3 2 2 4 5 5 8 7 7 8 10 9 10 10 9 7
12 8 7 7 5 15 13 14 15 7 4 7 10 15 9 10 11 11 11 14 10 11 10 9 10 8 8 7 7 8 7 7 7 6 5 5 5 5 5 6 5 6 10 11 10 12 14 10 9
11 18 9 12 6 13 12 10 10 9 8 9 5 9 3 5 7 8 15 14 12 10 9 10 10 9 9 9 9 7 8 5 5 6 5 4 5 5 6 5 10 11 6 7 11 12 12 10 8
8 6 7 5 13 3 5 10 14 21 6 8 9 10 4 7 4 5 7 7 7 8 11 12 10 9 9 10 8 7 7 7 6 8 7 5 4 5 7 9 8 7 9 11 12 11 15 6 7
8 6 4 2 5 7 8 10 7 5 5 8 4 6 12 5 6 3 5 8 7 8 9 12 13 14 13 10 8 7 8 7 7 6 7 7 6 7 8 8 7 6 6 6 10 14 9 8 8
8 7 3 4 4 4 4 7 2 3 5 7 6 7 10 14 4 8 8 9 9 9 8 9 13 14 11 11 9 8 8 8 7 6 7 7 7 8 9 10 10 9 10 7 8 15 15 14 14
8 6 6 0 3 2 5 10 7 5 2 3 6 7 5 13 11 8 13 9 8 8 9 9 10 11 13 13 10 11 8 7 7 6 6 7 7 6 8 10 11 12 12 9 10 12 13 14 14
Wind_Direction
323 309 293 325 46 140 246 253 262 327 191 347 38 67 86 42 88 117 182 118 124 134 140 147 156 144 136 131 136 138 134 127 127 125 122 123 123 121 120 117 119 122 120 112 103 104 101 89 73
319 309 307 264 117 291 260 257 28 325 330 356 20 27 77 66 87 104 54 139 132 144 146 146 158 152 144 137 139 141 140 135 135 132 131 135 135 132 128 126 124 126 122 114 110 106 105 101 86
285 211 336 149 190 224 256 276 316 324 327 334 350 33 100 127 62 103 124 144 141 147 152 150 156 154 149 142 140 140 141 138 138 135 136 138 139 134 129 132 134 137 131 123 118 114 109 102 88
331 344 309 133 265 262 250 284 300 305 313 332 339 40 72 92 109 134 121 137 146 154 155 148 147 153 153 142 137 137 134 138 136 135 139 140 140 134 134 140 142 145 143 136 133 133 131 128 120
338 305 289 285 264 276 273 230 264 252 287 321 345 32 82 50 53 54 118 115 155 160 151 149 144 148 158 146 141 140 138 137 137 139 144 146 147 145 145 150 152 156 157 154 147 143 148 164 179
319 142 277 269 281 282 280 213 165 288 274 306 321 46 69 74 49 348 62 137 126 159 153 153 140 142 148 155 142 139 139 139 139 141 146 152 151 151 154 159 165 170 167 164 161 157 173 195 234
208 242 244 251 258 277 276 282 232 197 239 286 317 322 152 54 29 355 21 185 103 147 148 149 143 140 143 152 146 141 141 140 139 145 151 153 158 159 163 171 176 182 185 179 187 177 198 220 239
211 188 255 254 262 269 272 275 183 162 206 241 79 294 189 202 81 18 24 360 115 131 149 146 144 135 130 137 154 146 146 147 149 153 155 158 163 168 178 185 191 196 201 192 195 200 203 221 234
265 243 245 249 258 267 275 283 222 183 180 203 233 176 276 136 52 62 13 4 100 117 144 149 142 138 135 130 154 149 148 150 153 155 157 159 160 174 189 194 208 209 207 203 202 204 211 218 223
211 236 238 246 262 268 274 288 281 177 209 211 222 270 275 348 90 89 39 12 59 137 141 182 152 150 149 153 142 150 151 154 156 160 164 166 174 184 195 201 210 208 212 209 206 205 213 213 213
233 241 253 260 260 267 284 302 296 313 224 174 194 198 227 46 50 102 82 69 323 121 166 178 170 156 160 152 151 158 164 161 176 172 174 181 185 194 199 198 203 199 214 207 212 219 213 204 210
237 241 237 247 259 271 277 298 305 313 275 218 176 150 106 32 85 302 108 99 51 39 50 145 165 161 165 135 160 168 172 176 182 190 178 178 195 200 207 188 185 193 200 208 217 222 220 214 216
250 247 248 244 250 247 282 277 282 284 318 283 146 178 171 175 195 212 160 108 84 78 55 82 145 152 133 120 142 153 173 193 179 185 184 177 186 202 207 201 178 189 191 206 214 225 217 213 221
275 294 288 300 301 305 318 303 309 276 303 289 236 190 179 189 214 158 210 176 136 112 108 86 154 152 148 125 154 157 136 190 184 186 190 189 180 198 212 220 190 189 194 208 214 221 219 207 204
327 326 316 298 293 284 316 294 270 262 290 282 272 217 225 209 203 196 189 201 183 146 132 141 152 128 118 107 99 137 151 117 167 199 189 190 193 199 198 205 215 223 218 213 205 215 216 188 211
312 311 293 279 284 268 198 252 254 253 237 260 269 274 262 218 202 150 126 131 249 173 152 167 170 147 137 109 150 99 10 125 188 179 169 201 185 193 206 194 211 225 237 244 251 224 228 182 241
260 252 252 268 238 240 213 238 242 226 230 245 238 244 247 221 184 169 151 148 166 188 156 167 165 159 162 152 148 148 207 150 229 257 167 176 206 190 183 196 204 210 230 239 218 265 124 169 260
252 256 258 257 293 334 317 305 216 195 234 254 264 277 248 153 184 177 148 126 134 133 120 106 54 347 172 165 139 106 353 188 297 275 243 205 186 206 195 187 203 224 224 246 215 205 211 202 220
255 269 278 310 325 336 304 295 295 269 240 274 288 279 271 225 194 172 148 134 124 104 100 121 169 50 41 127 217 175 129 290 181 256 252 207 189 177 179 197 217 220 222 222 216 185 207 267 259
289 296 299 310 315 299 296 294 288 274 238 242 255 277 248 256 243 159 152 152 151 147 131 90 77 17 19 46 1 357 214 120 304 180 246 245 240 207 186 187 201 216 214 222 215 189 198 206 180
277 296 283 266 270 272 294 290 294 276 271 274 270 250 249 216 218 176 168 164 146 138 136 130 118 89 2 263 339 3 48 343 152 259 233 251 227 215 218 192 193 205 196 224 212 199 200 231 237
259 271 285 294 333 278 5 300 289 289 295 290 275 275 244 240 203 177 165 129 131 140 131 126 130 128 160 2 196 194 229 244 290 168 174 243 291 264 226 212 184 209 192 220 220 229 222 178 200
243 242 277 287 287 318 300 281 282 270 264 272 277 260 236 216 189 139 139 135 143 138 146 158 155 158 179 192 208 206 213 212 236 313 183 204 232 233 239 218 201 200 210 222 217 235 213 230 159
287 263 254 258 272 269 263 249 270 274 273 306 320 304 215 135 126 121 131 141 144 157 162 164 166 195 192 189 210 219 225 247 280 241 230 232 259 225 207 243 200 198 222 222 223 234 215 214 184
254 271 273 279 264 258 253 253 251 310 259 249 305 334 123 121 135 142 141 148 162 173 177 167 176 199 199 200 206 209 217 221 231 247 241 222 238 250 232 261 273 221 213 220 215 223 224 204 194
214 228 241 250 236 267 274 255 267 228 215 237 264 212 268 108 131 154 161 170 180 186 176 165 182 197 192 199 214 212 204 207 215 225 234 248 260 265 268 220 225 236 213 213 227 230 233 214 190
317 290 245 282 283 294 261 277 283 266 278 237 209 287 350 154 134 116 148 150 155 175 189 185 181 187 189 188 189 208 217 224 228 231 216 211 226 252 242 243 236 232 229 216 219 235 244 205 172
290 269 282 208 240 241 232 248 243 3 333 8 11 312 211 190 146 158 159 169 188 189 175 186 187 191 197 189 198 193 197 222 229 236 248 248 246 245 254 253 263 282 272 265 251 244 231 198 209
330 327 317 48 323 288 278 268 113 50 29 358 22 19 3 344 252 197 213 209 207 201 202 196 194 197 194 195 196 197 211 206 206 210 223 226 243 253 263 267 273 267 262 247 251 241 233 205 204
292 69 73 282 302 299 262 259 331 103 151 104 322 334 351 327 331 335 315 218 211 197 201 205 199 197 193 200 189 200 201 200 203 235 231 223 227 231 241 253 250 256 258 255 243 255 255 227 202